Weather in Antoniv

Ukraine / Kyiv Region     49°37′55″N   29°45′42″E
temp.,
°C
wind,
m/s
gust,
m/s
humid.,
%
clouds,
%
prec.,
mm/h
press.,
hPa
HPBL,
m
20 september, mon
mon2000:00+7wsw5887100 0.1 1009607
03:00+6w5890100 0.3 1009722
06:00+7w71291100 0.4 1008566
09:00+7w71392100 0.9 1009638
12:00+9wnw71190100 0.6 1010682
15:00+9wnw61090100 0.8 1012611
18:00+9wnw5885100 0.1 1013855
21:00+7w5889100 0.1 1014713
21 september, tue
tue2100:00+6wnw5889100 0.1 1015940
03:00+6wnw5987100 0.2 1015870
06:00+5wnw61089100 0.1 1016893
09:00+5wnw61096100 0.4 1016943
12:00+5wnw61092100 0.2 1017988
15:00+5wnw71192100 0.4 1018961
18:00+5wnw61292100 0.1 1018940
21:00+5wnw61196100 0.1 1019925
22 september, wed
wed2200:00+5wnw61197100 0.1 1019901
03:00+5wnw61096100 0.2 1018795
06:00+5wnw61088100 0.0 1017730
09:00+6wnw4888100 0.1 10171059
12:00+6nw4683100 0.2 10171013
15:00+6nw4779100 0.3 1017750
18:00+6nw4684100 0.1 1017802
21:00+6nw4685100 0.3 1017943
23 september, thu
thu2300:00+5nw3590100 0.1 1017752
03:00+5nw3593100 0.2 1016721
06:00+5nw3592100 0.2 1016735
09:00+5nw3590100 0.4 1016854
12:00+6nw4582100 0.1 1017615
15:00+6nw3582100 0.3 1016760
18:00+6wnw2589100 0.1 1016384
21:00+6w2491100 0.2 1017211
24 september, fri
fri2400:00+6sw2392100 0.2 1016123
03:00+6sw3592100 0.2 1015194
06:00+4sw379298 0.0 1014144
09:00+7ssw51180100 0.0 1013359
12:00+13ssw81056100 0.0 1010919
15:00+15sw81145100 0.0 10091815
18:00+11wsw6128772 0.8 1010602
21:00+9wsw5129425 0.8 1011243